| time (UTC) | temp C | wind direction | speed KPH | gust KPH | rain 1hr cm | rain 24hr cm | rain mn cm | humidity % | barometer mb |
| 20260507021048 | 8 | 191 | 3.2 | 11.3 | 0.00 | 0.03 | 0.03 | 70 | 1008.8 |
| 20260507020549 | 8 | 196 | 6.4 | 11.3 | 0.00 | 0.03 | 0.03 | 70 | 1008.8 |
| 20260507015548 | 8 | 217 | 4.8 | 9.7 | 0.00 | 0.03 | 0.03 | 70 | 1008.7 |
| 20260507015048 | 8 | 221 | 4.8 | 11.3 | 0.00 | 0.03 | 0.03 | 70 | 1008.8 |
| 20260507014606 | 8 | 202 | 4.8 | 11.3 | 0.00 | 0.03 | 0.03 | 70 | 1008.9 |
| 20260507014050 | 8 | 206 | 4.8 | 8.0 | 0.00 | 0.03 | 0.03 | 70 | 1008.9 |
| 20260507013550 | 8 | 249 | 3.2 | 8.0 | 0.00 | 0.03 | 0.03 | 69 | 1008.9 |
| 20260507013054 | 8 | 194 | 3.2 | 8.0 | 0.00 | 0.03 | 0.03 | 69 | 1008.9 |
| 20260507012550 | 9 | 221 | 4.8 | 12.9 | 0.00 | 0.03 | 0.03 | 68 | 1009.0 |
| 20260507012052 | 9 | 237 | 3.2 | 12.9 | 0.00 | 0.03 | 0.03 | 68 | 1008.9 |
| 20260507011603 | 9 | 234 | 6.4 | 16.1 | 0.00 | 0.03 | 0.03 | 67 | 1009.0 |
| 20260507011050 | 9 | 252 | 8.0 | 16.1 | 0.00 | 0.03 | 0.03 | 67 | 1008.9 |
| 20260507010551 | 9 | 192 | 8.0 | 16.1 | 0.00 | 0.03 | 0.03 | 67 | 1008.8 |
| 20260507010057 | 9 | 223 | 8.0 | 16.1 | 0.00 | 0.03 | 0.03 | 67 | 1008.9 |
| 20260507005551 | 9 | 240 | 6.4 | 17.7 | 0.00 | 0.03 | 0.03 | 67 | 1008.8 |
| 20260507005055 | 9 | 153 | 6.4 | 17.7 | 0.00 | 0.03 | 0.03 | 68 | 1008.8 |
| 20260507004556 | 8 | 231 | 8.0 | 17.7 | 0.00 | 0.03 | 0.03 | 69 | 1008.8 |
| 20260507004048 | 8 | 245 | 3.2 | 11.3 | 0.00 | 0.03 | 0.03 | 68 | 1008.8 |
| 20260507003549 | 9 | 191 | 4.8 | 14.5 | 0.00 | 0.03 | 0.03 | 66 | 1008.8 |
| 20260507003059 | 9 | 247 | 6.4 | 17.7 | 0.00 | 0.03 | 0.03 | 65 | 1008.6 |
| 20260507002548 | 9 | 186 | 6.4 | 19.3 | 0.00 | 0.03 | 0.03 | 65 | 1008.6 |
| 20260507002051 | 9 | 189 | 8.0 | 20.9 | 0.00 | 0.03 | 0.03 | 64 | 1008.5 |
| 20260507001617 | 9 | 208 | 6.4 | 20.9 | 0.00 | 0.03 | 0.03 | 64 | 1008.5 |
| 20260507001048 | 9 | 182 | 4.8 | 16.1 | 0.00 | 0.03 | 0.03 | 64 | 1008.4 |
| 20260507000551 | 9 | 195 | 6.4 | 17.7 | 0.00 | 0.05 | 0.05 | 63 | 1008.5 |
| 20260507000059 | 9 | 199 | 6.4 | 17.7 | 0.00 | 0.05 | 0.05 | 63 | 1008.3 |
| 20260506235549 | 9 | 200 | 8.0 | 17.7 | 0.00 | 0.05 | 0.05 | 63 | 1008.3 |
| 20260506235052 | 9 | 167 | 6.4 | 25.7 | 0.00 | 0.05 | 0.05 | 63 | 1008.3 |
| 20260506234602 | 9 | 201 | 6.4 | 25.7 | 0.00 | 0.05 | 0.05 | 63 | 1008.1 |
| 20260506234048 | 10 | 185 | 8.0 | 24.1 | 0.00 | 0.05 | 0.05 | 62 | 1008.0 |
| 20260506233552 | 10 | 210 | 8.0 | 24.1 | 0.00 | 0.05 | 0.05 | 62 | 1008.1 |
| 20260506233056 | 10 | 161 | 11.3 | 19.3 | 0.00 | 0.05 | 0.05 | 62 | 1008.0 |
| 20260506232553 | 10 | 184 | 8.0 | 20.9 | 0.00 | 0.05 | 0.05 | 62 | 1007.9 |
| 20260506232048 | 10 | 174 | 6.4 | 20.9 | 0.00 | 0.05 | 0.05 | 63 | 1008.0 |
| 20260506231558 | 10 | 186 | 6.4 | 17.7 | 0.00 | 0.05 | 0.05 | 63 | 1007.9 |
| 20260506231048 | 10 | 180 | 6.4 | 14.5 | 0.00 | 0.05 | 0.05 | 63 | 1007.9 |
| 20260506230550 | 10 | 181 | 0.0 | 14.5 | 0.00 | 0.05 | 0.05 | 63 | 1007.9 |
| 20260506230059 | 13 | 0 | 0.0 | 0.0 | 0.00 | 0.05 | 0.05 | 72 | 1007.8 |
| 20260506225550 | 12 | 0 | 0.0 | 3.2 | 0.00 | 0.05 | 0.05 | 76 | 1007.7 |
| 20260506225048 | 11 | 0 | 0.0 | 9.7 | 0.00 | 0.05 | 0.05 | 79 | 1007.8 |
| 20260506224552 | 10 | 0 | 0.0 | 9.7 | 0.00 | 0.05 | 0.05 | 76 | 1007.8 |
| 20260506224048 | 10 | 155 | 0.0 | 4.8 | 0.00 | 0.05 | 0.05 | 68 | 1007.8 |
| 20260506223551 | 10 | 142 | 1.6 | 4.8 | 0.00 | 0.05 | 0.05 | 67 | 1007.8 |
| 20260506223055 | 10 | 207 | 0.0 | 4.8 | 0.00 | 0.05 | 0.05 | 67 | 1007.9 |
| 20260506222549 | 10 | 217 | 0.0 | 4.8 | 0.00 | 0.05 | 0.05 | 66 | 1008.0 |
| 20260506222052 | 10 | 113 | 1.6 | 4.8 | 0.00 | 0.05 | 0.05 | 66 | 1008.0 |
| 20260506221551 | 10 | 0 | 1.6 | 8.0 | 0.00 | 0.05 | 0.05 | 65 | 1008.0 |
| 20260506221049 | 10 | 211 | 1.6 | 8.0 | 0.00 | 0.05 | 0.05 | 64 | 1008.0 |
| 20260506220549 | 10 | 153 | 1.6 | 6.4 | 0.00 | 0.05 | 0.05 | 64 | 1007.9 |
| 20260506215548 | 11 | 111 | 0.0 | 3.2 | 0.03 | 0.05 | 0.05 | 64 | 1007.8 |
| 20260506215049 | 11 | 197 | 0.0 | 6.4 | 0.05 | 0.05 | 0.05 | 63 | 1007.9 |
| 20260506214554 | 11 | 187 | 0.0 | 6.4 | 0.05 | 0.05 | 0.05 | 62 | 1007.9 |
| 20260506214049 | 11 | 245 | 0.0 | 6.4 | 0.05 | 0.05 | 0.05 | 62 | 1008.0 |
| 20260506213550 | 11 | 155 | 1.6 | 4.8 | 0.05 | 0.05 | 0.05 | 62 | 1007.9 |
| 20260506213101 | 11 | 205 | 0.0 | 6.4 | 0.05 | 0.05 | 0.05 | 61 | 1007.8 |
| 20260506212549 | 11 | 224 | 1.6 | 6.4 | 0.05 | 0.05 | 0.05 | 61 | 1007.9 |
| 20260506212052 | 11 | 236 | 1.6 | 6.4 | 0.05 | 0.05 | 0.05 | 60 | 1007.7 |
| 20260506211552 | 11 | 208 | 1.6 | 6.4 | 0.05 | 0.05 | 0.05 | 59 | 1007.8 |
| 20260506211049 | 11 | 228 | 1.6 | 9.7 | 0.05 | 0.05 | 0.05 | 58 | 1007.9 |
| 20260506210551 | 12 | 0 | 1.6 | 9.7 | 0.05 | 0.05 | 0.05 | 57 | 1007.9 |
| 20260506210100 | 12 | 0 | 3.2 | 9.7 | 0.05 | 0.05 | 0.05 | 57 | 1007.9 |
| 20260506205549 | 12 | 0 | 0.0 | 6.4 | 0.03 | 0.03 | 0.03 | 66 | 1007.8 |
| 20260506205050 | 11 | 268 | 0.0 | 6.4 | 0.00 | 0.00 | 0.00 | 58 | 1007.7 |
| 20260506204553 | 11 | 0 | 0.0 | 11.3 | 0.00 | 0.00 | 0.00 | 56 | 1007.7 |
| 20260506204051 | 11 | 55 | 1.6 | 11.3 | 0.00 | 0.00 | 0.00 | 56 | 1007.7 |
| 20260506203549 | 12 | 314 | 3.2 | 11.3 | 0.00 | 0.00 | 0.00 | 56 | 1007.7 |
| 20260506203139 | 12 | 0 | 0.0 | 14.5 | 0.00 | 0.00 | 0.00 | 55 | 1007.6 |
| 20260506202552 | 12 | 0 | 1.6 | 14.5 | 0.00 | 0.00 | 0.00 | 56 | 1007.5 |
| 20260506202049 | 12 | 320 | 1.6 | 9.7 | 0.00 | 0.00 | 0.00 | 53 | 1007.5 |
| 20260506201552 | 13 | 314 | 0.0 | 12.9 | 0.00 | 0.00 | 0.00 | 53 | 1007.5 |
| 20260506201049 | 13 | 199 | 0.0 | 12.9 | 0.00 | 0.00 | 0.00 | 54 | 1007.6 |
| 20260506200549 | 12 | 235 | 0.0 | 9.7 | 0.00 | 0.00 | 0.00 | 54 | 1007.8 |
| 20260506200053 | 12 | 160 | 3.2 | 20.9 | 0.00 | 0.00 | 0.00 | 55 | 1007.6 |
| 20260506195548 | 12 | 0 | 0.0 | 20.9 | 0.00 | 0.00 | 0.00 | 55 | 1007.7 |
| 20260506195049 | 11 | 141 | 8.0 | 20.9 | 0.00 | 0.00 | 0.00 | 56 | 1007.9 |
| 20260506194555 | 11 | 155 | 6.4 | 12.9 | 0.00 | 0.00 | 0.00 | 56 | 1008.0 |
| 20260506194050 | 11 | 139 | 3.2 | 14.5 | 0.00 | 0.00 | 0.00 | 58 | 1008.0 |
| 20260506193548 | 11 | 93 | 4.8 | 14.5 | 0.00 | 0.00 | 0.00 | 58 | 1007.9 |
| 20260506193052 | 11 | 112 | 4.8 | 17.7 | 0.00 | 0.00 | 0.00 | 58 | 1007.9 |
| 20260506192549 | 11 | 216 | 6.4 | 17.7 | 0.00 | 0.00 | 0.00 | 59 | 1008.1 |
| 20260506192048 | 11 | 136 | 4.8 | 17.7 | 0.00 | 0.00 | 0.00 | 58 | 1008.1 |
| 20260506191559 | 11 | 156 | 8.0 | 17.7 | 0.00 | 0.00 | 0.00 | 58 | 1008.2 |
| 20260506191048 | 11 | 174 | 8.0 | 17.7 | 0.00 | 0.00 | 0.00 | 58 | 1008.2 |
| 20260506190549 | 10 | 149 | 6.4 | 16.1 | 0.00 | 0.00 | 0.00 | 59 | 1008.2 |
| 20260506190056 | 10 | 146 | 8.0 | 14.5 | 0.00 | 0.00 | 0.00 | 60 | 1008.2 |
| 20260506185548 | 11 | 160 | 6.4 | 12.9 | 0.00 | 0.00 | 0.00 | 59 | 1008.3 |
| 20260506185049 | 11 | 217 | 6.4 | 12.9 | 0.00 | 0.00 | 0.00 | 59 | 1008.3 |
| 20260506184603 | 11 | 163 | 4.8 | 11.3 | 0.00 | 0.00 | 0.00 | 59 | 1008.3 |
| 20260506184052 | 11 | 206 | 4.8 | 11.3 | 0.00 | 0.00 | 0.00 | 58 | 1008.3 |
| 20260506183549 | 10 | 116 | 6.4 | 11.3 | 0.00 | 0.00 | 0.00 | 59 | 1008.3 |
| 20260506183101 | 10 | 96 | 4.8 | 14.5 | 0.00 | 0.00 | 0.00 | 59 | 1008.3 |
| 20260506182548 | 10 | 150 | 4.8 | 14.5 | 0.00 | 0.00 | 0.00 | 58 | 1008.4 |
| 20260506182048 | 10 | 203 | 8.0 | 14.5 | 0.00 | 0.00 | 0.00 | 60 | 1008.5 |
| 20260506181556 | 10 | 200 | 9.7 | 16.1 | 0.00 | 0.00 | 0.00 | 58 | 1008.4 |
| 20260506181049 | 10 | 229 | 6.4 | 16.1 | 0.00 | 0.00 | 0.00 | 61 | 1008.5 |
| 20260506180548 | 10 | 258 | 9.7 | 16.1 | 0.00 | 0.00 | 0.00 | 60 | 1008.6 |
| 20260506180055 | 10 | 200 | 6.4 | 16.1 | 0.00 | 0.00 | 0.00 | 63 | 1008.6 |
| 20260506175548 | 10 | 124 | 6.4 | 16.1 | 0.00 | 0.00 | 0.00 | 62 | 1008.4 |
| 20260506175052 | 10 | 198 | 6.4 | 16.1 | 0.00 | 0.00 | 0.00 | 63 | 1008.6 |
| 20260506174607 | 10 | 136 | 8.0 | 16.1 | 0.00 | 0.00 | 0.00 | 63 | 1008.7 |
| 20260506174052 | 9 | 121 | 11.3 | 16.1 | 0.00 | 0.00 | 0.00 | 61 | 1008.7 |
| 20260506173549 | 9 | 163 | 8.0 | 16.1 | 0.00 | 0.00 | 0.00 | 64 | 1008.7 |
| 20260506173058 | 9 | 148 | 6.4 | 12.9 | 0.00 | 0.00 | 0.00 | 64 | 1008.8 |
| 20260506172548 | 9 | 207 | 4.8 | 14.5 | 0.00 | 0.00 | 0.00 | 65 | 1008.9 |
| 20260506172048 | 8 | 200 | 6.4 | 14.5 | 0.00 | 0.00 | 0.00 | 65 | 1008.8 |
| 20260506171602 | 8 | 205 | 6.4 | 14.5 | 0.00 | 0.00 | 0.00 | 66 | 1008.8 |
| 20260506171048 | 8 | 130 | 4.8 | 14.5 | 0.00 | 0.00 | 0.00 | 67 | 1008.8 |
| 20260506170548 | 8 | 233 | 4.8 | 14.5 | 0.00 | 0.00 | 0.00 | 68 | 1008.8 |
| 20260506170053 | 8 | 183 | 6.4 | 14.5 | 0.00 | 0.00 | 0.00 | 68 | 1008.8 |
| 20260506165548 | 8 | 131 | 6.4 | 12.9 | 0.00 | 0.00 | 0.00 | 69 | 1008.7 |
| 20260506165049 | 8 | 138 | 6.4 | 12.9 | 0.00 | 0.00 | 0.00 | 69 | 1008.8 |
| 20260506164557 | 7 | 222 | 4.8 | 12.9 | 0.00 | 0.00 | 0.00 | 70 | 1008.8 |
| 20260506164048 | 7 | 181 | 6.4 | 11.3 | 0.00 | 0.00 | 0.00 | 70 | 1008.9 |
| 20260506163548 | 7 | 198 | 4.8 | 14.5 | 0.00 | 0.00 | 0.00 | 70 | 1009.1 |
| 20260506163116 | 7 | 214 | 4.8 | 14.5 | 0.00 | 0.00 | 0.00 | 70 | 1009.1 |
| 20260506162548 | 7 | 184 | 4.8 | 17.7 | 0.00 | 0.00 | 0.00 | 69 | 1009.1 |
| 20260506162050 | 7 | 209 | 6.4 | 17.7 | 0.00 | 0.00 | 0.00 | 69 | 1009.1 |
| 20260506161552 | 7 | 138 | 4.8 | 12.9 | 0.00 | 0.00 | 0.00 | 68 | 1009.1 |
| 20260506161048 | 7 | 162 | 4.8 | 12.9 | 0.00 | 0.00 | 0.00 | 68 | 1009.0 |
| 20260506160548 | 7 | 208 | 4.8 | 14.5 | 0.00 | 0.00 | 0.00 | 67 | 1008.8 |
| 20260506160059 | 7 | 188 | 4.8 | 14.5 | 0.00 | 0.00 | 0.00 | 68 | 1009.1 |
| 20260506155549 | 7 | 165 | 6.4 | 12.9 | 0.00 | 0.00 | 0.00 | 68 | 1009.3 |
| 20260506155049 | 7 | 201 | 4.8 | 12.9 | 0.00 | 0.00 | 0.00 | 68 | 1009.2 |
| 20260506154555 | 7 | 210 | 3.2 | 16.1 | 0.00 | 0.00 | 0.00 | 68 | 1009.1 |
| 20260506154053 | 7 | 158 | 8.0 | 16.1 | 0.00 | 0.00 | 0.00 | 68 | 1009.1 |
| 20260506153549 | 7 | 113 | 4.8 | 12.9 | 0.00 | 0.00 | 0.00 | 69 | 1009.1 |
| 20260506153058 | 7 | 233 | 6.4 | 12.9 | 0.00 | 0.00 | 0.00 | 69 | 1009.2 |
| 20260506152552 | 7 | 203 | 6.4 | 12.9 | 0.00 | 0.00 | 0.00 | 70 | 1009.3 |
| 20260506152049 | 7 | 186 | 6.4 | 12.9 | 0.00 | 0.00 | 0.00 | 70 | 1009.3 |
| 20260506151555 | 7 | 233 | 4.8 | 12.9 | 0.00 | 0.00 | 0.00 | 70 | 1009.2 |
| 20260506151048 | 7 | 129 | 4.8 | 11.3 | 0.00 | 0.00 | 0.00 | 70 | 1009.3 |
| 20260506150548 | 7 | 156 | 4.8 | 12.9 | 0.00 | 0.00 | 0.00 | 70 | 1009.3 |
| 20260506150055 | 7 | 209 | 3.2 | 16.1 | 0.00 | 0.00 | 0.00 | 70 | 1009.2 |
| 20260506145551 | 7 | 137 | 4.8 | 16.1 | 0.00 | 0.00 | 0.00 | 71 | 1009.4 |
| 20260506145046 | 7 | 136 | 6.4 | 16.1 | 0.00 | 0.00 | 0.00 | 71 | 1009.4 |
| 20260506144555 | 7 | 203 | 4.8 | 14.5 | 0.00 | 0.00 | 0.00 | 71 | 1009.5 |
| 20260506144049 | 7 | 139 | 4.8 | 14.5 | 0.00 | 0.00 | 0.00 | 71 | 1009.4 |
| 20260506143550 | 7 | 165 | 6.4 | 12.9 | 0.00 | 0.00 | 0.00 | 71 | 1009.5 |
| 20260506143056 | 7 | 240 | 4.8 | 12.9 | 0.00 | 0.00 | 0.00 | 71 | 1009.5 |
| 20260506142549 | 7 | 166 | 8.0 | 12.9 | 0.00 | 0.00 | 0.00 | 71 | 1009.4 |
| 20260506142048 | 7 | 192 | 1.6 | 12.9 | 0.00 | 0.00 | 0.00 | 70 | 1009.4 |
| 20260506141556 | 7 | 114 | 6.4 | 16.1 | 0.00 | 0.00 | 0.00 | 71 | 1009.4 |
| 20260506141049 | 7 | 160 | 6.4 | 16.1 | 0.00 | 0.00 | 0.00 | 70 | 1009.3 |
| 20260506140551 | 7 | 153 | 8.0 | 16.1 | 0.00 | 0.00 | 0.00 | 70 | 1009.3 |
| 20260506140053 | 7 | 149 | 4.8 | 14.5 | 0.00 | 0.00 | 0.00 | 67 | 1009.2 |
| 20260506135548 | 7 | 160 | 3.2 | 8.0 | 0.00 | 0.00 | 0.00 | 62 | 1009.2 |
| 20260506135048 | 7 | 135 | 3.2 | 8.0 | 0.00 | 0.00 | 0.00 | 63 | 1009.3 |
| 20260506134557 | 7 | 154 | 3.2 | 8.0 | 0.00 | 0.00 | 0.00 | 63 | 1009.1 |
| 20260506134048 | 7 | 148 | 3.2 | 12.9 | 0.00 | 0.00 | 0.00 | 64 | 1009.1 |
| 20260506133547 | 7 | 135 | 3.2 | 12.9 | 0.00 | 0.00 | 0.00 | 65 | 1009.2 |
| 20260506133053 | 7 | 152 | 3.2 | 9.7 | 0.00 | 0.00 | 0.00 | 64 | 1009.0 |
| 20260506132550 | 7 | 196 | 3.2 | 8.0 | 0.00 | 0.00 | 0.00 | 64 | 1009.1 |
| 20260506132049 | 7 | 158 | 4.8 | 9.7 | 0.00 | 0.00 | 0.00 | 64 | 1009.1 |
| 20260506131551 | 7 | 102 | 4.8 | 9.7 | 0.00 | 0.00 | 0.00 | 66 | 1009.1 |
| 20260506131049 | 7 | 212 | 0.0 | 4.8 | 0.00 | 0.00 | 0.00 | 68 | 1009.2 |
| 20260506130550 | 7 | 245 | 0.0 | 4.8 | 0.00 | 0.00 | 0.00 | 70 | 1009.2 |
| 20260506130056 | 7 | 150 | 3.2 | 6.4 | 0.00 | 0.00 | 0.00 | 70 | 1009.1 |
| 20260506125549 | 7 | 160 | 3.2 | 6.4 | 0.00 | 0.00 | 0.00 | 71 | 1009.0 |
| 20260506125053 | 7 | 141 | 0.0 | 1.6 | 0.00 | 0.00 | 0.00 | 72 | 1009.0 |
| 20260506124557 | 7 | 209 | 0.0 | 4.8 | 0.00 | 0.00 | 0.00 | 71 | 1009.2 |
| 20260506124048 | 7 | 143 | 1.6 | 6.4 | 0.00 | 0.00 | 0.00 | 71 | 1009.2 |
| 20260506123548 | 7 | 181 | 1.6 | 6.4 | 0.00 | 0.00 | 0.00 | 71 | 1009.1 |
| 20260506123107 | 7 | 209 | 0.0 | 3.2 | 0.00 | 0.00 | 0.00 | 70 | 1009.1 |
| 20260506122549 | 7 | 0 | 0.0 | 3.2 | 0.00 | 0.00 | 0.00 | 68 | 1009.1 |
| 20260506122049 | 7 | 0 | 0.0 | 1.6 | 0.00 | 0.00 | 0.00 | 69 | 1009.1 |
| 20260506121608 | 7 | 0 | 0.0 | 1.6 | 0.00 | 0.00 | 0.00 | 68 | 1009.2 |
| 20260506121048 | 7 | 0 | 0.0 | 1.6 | 0.00 | 0.00 | 0.00 | 68 | 1009.2 |
| 20260506120550 | 7 | 0 | 0.0 | 1.6 | 0.00 | 0.00 | 0.00 | 68 | 1009.2 |
| 20260506120059 | 7 | 161 | 0.0 | 1.6 | 0.00 | 0.00 | 0.00 | 68 | 1009.0 |
| 20260506115549 | 7 | 0 | 1.6 | 1.6 | 0.00 | 0.00 | 0.00 | 65 | 1009.0 |
| 20260506115049 | 6 | 196 | 0.0 | 1.6 | 0.00 | 0.00 | 0.00 | 67 | 1009.0 |
| 20260506114552 | 6 | 231 | 0.0 | 1.6 | 0.00 | 0.00 | 0.00 | 67 | 1009.1 |
| 20260506114048 | 6 | 0 | 0.0 | 3.2 | 0.00 | 0.00 | 0.00 | 68 | 1009.1 |
| 20260506113548 | 6 | 0 | 0.0 | 3.2 | 0.00 | 0.00 | 0.00 | 69 | 1009.3 |
| 20260506113056 | 6 | 234 | 0.0 | 1.6 | 0.00 | 0.00 | 0.00 | 68 | 1009.3 |
| 20260506112548 | 6 | 247 | 0.0 | 1.6 | 0.00 | 0.00 | 0.00 | 68 | 1009.2 |
| 20260506112048 | 6 | 0 | 0.0 | 1.6 | 0.00 | 0.00 | 0.00 | 68 | 1009.2 |
| 20260506111552 | 6 | 226 | 0.0 | 1.6 | 0.00 | 0.00 | 0.00 | 67 | 1009.2 |
| 20260506111052 | 6 | 0 | 0.0 | 1.6 | 0.00 | 0.00 | 0.00 | 67 | 1009.1 |
| 20260506110548 | 6 | 226 | 0.0 | 1.6 | 0.00 | 0.00 | 0.00 | 66 | 1009.0 |
| 20260506110104 | 6 | 221 | 0.0 | 1.6 | 0.00 | 0.00 | 0.00 | 66 | 1009.0 |
| 20260506105549 | 6 | 224 | 0.0 | 3.2 | 0.00 | 0.00 | 0.00 | 66 | 1009.1 |
| 20260506105049 | 6 | 0 | 0.0 | 3.2 | 0.00 | 0.00 | 0.00 | 66 | 1009.0 |
| 20260506104557 | 7 | 214 | 0.0 | 3.2 | 0.00 | 0.00 | 0.00 | 66 | 1009.0 |
| 20260506104048 | 7 | 225 | 0.0 | 3.2 | 0.00 | 0.00 | 0.00 | 65 | 1009.0 |
| 20260506103549 | 7 | 194 | 1.6 | 3.2 | 0.00 | 0.00 | 0.00 | 65 | 1008.8 |
| 20260506103058 | 7 | 205 | 0.0 | 3.2 | 0.00 | 0.00 | 0.00 | 65 | 1008.9 |
| 20260506102549 | 7 | 235 | 0.0 | 3.2 | 0.00 | 0.00 | 0.00 | 65 | 1009.0 |
| 20260506102048 | 7 | 210 | 0.0 | 3.2 | 0.00 | 0.00 | 0.00 | 64 | 1009.0 |
| 20260506101609 | 7 | 200 | 1.6 | 3.2 | 0.00 | 0.00 | 0.00 | 63 | 1008.9 |
| 20260506101049 | 7 | 183 | 0.0 | 4.8 | 0.00 | 0.00 | 0.00 | 64 | 1009.0 |
| 20260506100549 | 7 | 236 | 1.6 | 4.8 | 0.00 | 0.00 | 0.00 | 64 | 1009.2 |
| 20260506100053 | 7 | 212 | 1.6 | 4.8 | 0.00 | 0.00 | 0.00 | 64 | 1009.2 |
| 20260506095548 | 7 | 217 | 0.0 | 4.8 | 0.00 | 0.00 | 0.00 | 65 | 1009.2 |
| 20260506095049 | 7 | 214 | 1.6 | 4.8 | 0.00 | 0.00 | 0.00 | 64 | 1009.2 |
| 20260506094557 | 7 | 224 | 1.6 | 6.4 | 0.00 | 0.00 | 0.00 | 63 | 1009.4 |
| 20260506094048 | 7 | 219 | 1.6 | 6.4 | 0.00 | 0.00 | 0.00 | 63 | 1009.4 |
| 20260506093552 | 7 | 231 | 1.6 | 6.4 | 0.00 | 0.00 | 0.00 | 64 | 1009.2 |
| 20260506093058 | 6 | 159 | 1.6 | 3.2 | 0.00 | 0.00 | 0.00 | 64 | 1009.0 |
| 20260506092549 | 6 | 153 | 1.6 | 3.2 | 0.00 | 0.00 | 0.00 | 64 | 1008.9 |
| 20260506092050 | 6 | 134 | 0.0 | 1.6 | 0.00 | 0.00 | 0.00 | 64 | 1008.9 |
| 20260506091552 | 6 | 198 | 0.0 | 3.2 | 0.00 | 0.00 | 0.00 | 64 | 1009.0 |
| 20260506091051 | 6 | 224 | 0.0 | 3.2 | 0.00 | 0.00 | 0.00 | 64 | 1008.9 |
| 20260506090548 | 6 | 149 | 1.6 | 4.8 | 0.00 | 0.00 | 0.00 | 64 | 1008.8 |
| 20260506085548 | 6 | 139 | 1.6 | 3.2 | 0.00 | 0.00 | 0.00 | 64 | 1008.7 |
| 20260506085049 | 6 | 149 | 1.6 | 3.2 | 0.00 | 0.00 | 0.00 | 64 | 1008.8 |
| 20260506084616 | 6 | 136 | 1.6 | 3.2 | 0.00 | 0.00 | 0.00 | 64 | 1008.8 |
| 20260506084049 | 7 | 159 | 1.6 | 3.2 | 0.00 | 0.00 | 0.00 | 64 | 1008.8 |
| 20260506083548 | 7 | 205 | 1.6 | 3.2 | 0.00 | 0.00 | 0.00 | 63 | 1008.9 |
| 20260506083055 | 7 | 209 | 0.0 | 3.2 | 0.00 | 0.00 | 0.00 | 64 | 1009.0 |
| 20260506082548 | 7 | 224 | 1.6 | 3.2 | 0.00 | 0.00 | 0.00 | 63 | 1009.1 |
| 20260506082050 | 7 | 220 | 0.0 | 3.2 | 0.00 | 0.00 | 0.00 | 64 | 1009.1 |
| 20260506081605 | 7 | 217 | 1.6 | 3.2 | 0.00 | 0.00 | 0.00 | 64 | 1009.2 |
| 20260506081054 | 7 | 141 | 1.6 | 1.6 | 0.00 | 0.00 | 0.00 | 64 | 1009.0 |
| 20260506080549 | 7 | 153 | 1.6 | 3.2 | 0.00 | 0.00 | 0.00 | 64 | 1008.9 |
| 20260506073054 | 7 | 196 | 1.6 | 4.8 | 0.00 | 0.00 | 0.00 | 62 | 1008.8 |
| 20260506072551 | 7 | 216 | 1.6 | 6.4 | 0.00 | 0.00 | 0.00 | 61 | 1008.9 |
| 20260506072050 | 7 | 234 | 1.6 | 6.4 | 0.00 | 0.00 | 0.00 | 61 | 1008.9 |
| 20260506071556 | 7 | 235 | 1.6 | 6.4 | 0.00 | 0.00 | 0.00 | 61 | 1009.0 |
| 20260506071048 | 7 | 210 | 1.6 | 4.8 | 0.00 | 0.00 | 0.00 | 61 | 1009.0 |
| 20260506070549 | 7 | 221 | 1.6 | 4.8 | 0.00 | 0.00 | 0.00 | 61 | 1009.1 |
| 20260506062050 | 7 | 219 | 0.0 | 3.2 | 0.00 | 0.00 | 0.00 | 58 | 1008.6 |
| 20260506061556 | 7 | 0 | 0.0 | 3.2 | 0.00 | 0.00 | 0.00 | 58 | 1008.7 |
| 20260506061048 | 7 | 250 | 0.0 | 3.2 | 0.00 | 0.00 | 0.00 | 58 | 1008.8 |
| 20260506060549 | 7 | 252 | 0.0 | 4.8 | 0.00 | 0.00 | 0.00 | 57 | 1008.9 |
| 20260506051048 | 8 | 231 | 3.2 | 4.8 | 0.00 | 0.00 | 0.00 | 56 | 1009.0 |
| 20260506050549 | 8 | 228 | 3.2 | 4.8 | 0.00 | 0.00 | 0.00 | 56 | 1008.9 |
| 20260506050113 | 8 | 204 | 3.2 | 4.8 | 0.00 | 0.00 | 0.00 | 57 | 1009.0 |
| 20260506045048 | 8 | 209 | 1.6 | 4.8 | 0.00 | 0.00 | 0.00 | 57 | 1009.0 |
| 20260506044554 | 8 | 200 | 1.6 | 4.8 | 0.00 | 0.00 | 0.00 | 56 | 1009.0 |
| 20260506044048 | 8 | 207 | 1.6 | 3.2 | 0.00 | 0.00 | 0.00 | 56 | 1008.8 |
| 20260506043549 | 8 | 192 | 0.0 | 4.8 | 0.00 | 0.00 | 0.00 | 56 | 1008.5 |
| 20260506043059 | 8 | 225 | 1.6 | 9.7 | 0.00 | 0.00 | 0.00 | 55 | 1008.6 |
| 20260506042549 | 8 | 221 | 1.6 | 9.7 | 0.00 | 0.00 | 0.00 | 55 | 1008.6 |
| 20260506042050 | 8 | 265 | 3.2 | 9.7 | 0.00 | 0.00 | 0.00 | 56 | 1008.7 |
| 20260506041603 | 8 | 227 | 3.2 | 9.7 | 0.00 | 0.00 | 0.00 | 55 | 1008.7 |
| 20260506041048 | 8 | 268 | 3.2 | 8.0 | 0.00 | 0.00 | 0.00 | 56 | 1008.7 |
| 20260506040549 | 8 | 226 | 3.2 | 8.0 | 0.00 | 0.00 | 0.00 | 57 | 1008.7 |
| 20260506040057 | 8 | 232 | 3.2 | 8.0 | 0.00 | 0.00 | 0.00 | 57 | 1008.6 |
| 20260506035550 | 8 | 214 | 3.2 | 8.0 | 0.00 | 0.00 | 0.00 | 57 | 1008.6 |
| 20260506035049 | 8 | 226 | 3.2 | 8.0 | 0.00 | 0.00 | 0.00 | 57 | 1008.5 |
| 20260506034601 | 8 | 233 | 3.2 | 9.7 | 0.00 | 0.00 | 0.00 | 57 | 1008.5 |
| 20260506034049 | 8 | 252 | 4.8 | 9.7 | 0.00 | 0.00 | 0.00 | 56 | 1008.5 |
| 20260506033549 | 8 | 222 | 1.6 | 9.7 | 0.00 | 0.00 | 0.00 | 57 | 1008.2 |
| 20260506033059 | 8 | 219 | 4.8 | 11.3 | 0.00 | 0.00 | 0.00 | 56 | 1008.3 |
| 20260506032548 | 8 | 221 | 4.8 | 11.3 | 0.00 | 0.00 | 0.00 | 56 | 1008.3 |
| 20260506032049 | 8 | 224 | 4.8 | 8.0 | 0.00 | 0.00 | 0.00 | 56 | 1008.4 |
| 20260506031559 | 8 | 208 | 3.2 | 8.0 | 0.00 | 0.00 | 0.00 | 56 | 1008.3 |
| 20260506031048 | 8 | 219 | 3.2 | 6.4 | 0.00 | 0.00 | 0.00 | 55 | 1008.3 |
| 20260506030546 | 8 | 216 | 1.6 | 6.4 | 0.00 | 0.00 | 0.00 | 55 | 1008.2 |
| 20260506030056 | 8 | 190 | 3.2 | 6.4 | 0.00 | 0.00 | 0.00 | 54 | 1008.1 |
| 20260506025550 | 8 | 226 | 3.2 | 6.4 | 0.00 | 0.00 | 0.00 | 54 | 1008.0 |
| 20260506025048 | 9 | 235 | 3.2 | 6.4 | 0.00 | 0.00 | 0.00 | 54 | 1007.9 |
| 20260506024606 | 9 | 231 | 1.6 | 6.4 | 0.00 | 0.00 | 0.00 | 53 | 1007.9 |
| 20260506024049 | 9 | 229 | 1.6 | 6.4 | 0.00 | 0.00 | 0.00 | 53 | 1007.8 |
| 20260506023550 | 9 | 243 | 1.6 | 6.4 | 0.00 | 0.00 | 0.00 | 52 | 1007.8 |
| 20260506023107 | 9 | 229 | 4.8 | 12.9 | 0.00 | 0.00 | 0.00 | 52 | 1007.8 |
| 20260506022549 | 10 | 217 | 4.8 | 12.9 | 0.00 | 0.00 | 0.00 | 51 | 1007.7 |
| 20260506022053 | 10 | 254 | 6.4 | 12.9 | 0.00 | 0.00 | 0.00 | 50 | 1007.6 |
| 20260506021552 | 10 | 228 | 4.8 | 16.1 | 0.00 | 0.00 | 0.00 | 50 | 1007.7 |